TimeEST,TemperatureF,Dew PointF,Humidity,Sea Level PressureIn,VisibilityMPH,Wind Direction,Wind SpeedMPH,Gust SpeedMPH,PrecipitationIn,Events,Conditions,WindDirDegrees,DateUTC
12:51 AM,37.9,33.1,83,30.28,10.0,North,8.1,-,0.01,Rain,Light Rain,360,2013-01-15 05:51:00
1:51 AM,37.0,32.0,82,30.28,10.0,North,5.8,-,0.03,Rain,Light Rain,360,2013-01-15 06:51:00
2:51 AM,37.0,32.0,82,30.28,10.0,North,9.2,-,0.03,Rain,Light Rain,360,2013-01-15 07:51:00
3:51 AM,36.0,30.9,82,30.25,10.0,North,6.9,-,0.01,Rain,Light Rain,10,2013-01-15 08:51:00
4:51 AM,36.0,30.9,82,30.26,10.0,East,5.8,-,0.01,,Overcast,90,2013-01-15 09:51:00
5:51 AM,36.0,30.9,82,30.28,10.0,NNE,8.1,-,N/A,,Overcast,20,2013-01-15 10:51:00
6:51 AM,36.0,30.9,82,30.30,10.0,North,11.5,-,N/A,,Overcast,350,2013-01-15 11:51:00
7:51 AM,37.0,28.9,73,30.31,10.0,North,11.5,-,N/A,,Overcast,360,2013-01-15 12:51:00
8:51 AM,37.0,28.0,70,30.35,10.0,North,12.7,-,N/A,,Mostly Cloudy,360,2013-01-15 13:51:00
9:51 AM,37.0,27.0,67,30.34,10.0,North,11.5,-,N/A,,Overcast,360,2013-01-15 14:51:00
10:51 AM,37.9,26.1,62,30.35,10.0,North,9.2,-,N/A,,Overcast,350,2013-01-15 15:51:00
11:51 AM,37.9,26.1,62,30.32,10.0,North,11.5,-,N/A,,Overcast,360,2013-01-15 16:51:00
12:51 PM,37.9,25.0,60,30.29,10.0,North,10.4,-,N/A,,Overcast,350,2013-01-15 17:51:00
1:51 PM,39.0,25.0,57,30.28,10.0,North,9.2,-,N/A,,Overcast,350,2013-01-15 18:51:00
2:51 PM,39.0,25.0,57,30.29,10.0,North,6.9,-,N/A,,Overcast,10,2013-01-15 19:51:00
3:51 PM,39.0,25.0,57,30.28,10.0,NE,6.9,-,N/A,,Overcast,40,2013-01-15 20:51:00
4:51 PM,39.0,25.0,57,30.30,10.0,NNE,9.2,-,N/A,,Overcast,20,2013-01-15 21:51:00
5:51 PM,39.0,25.0,57,30.28,10.0,NNE,10.4,-,N/A,,Overcast,20,2013-01-15 22:51:00
6:51 PM,39.0,25.0,57,30.29,10.0,North,9.2,-,N/A,,Overcast,360,2013-01-15 23:51:00
7:51 PM,37.9,24.1,57,30.28,10.0,North,8.1,-,N/A,,Overcast,360,2013-01-16 00:51:00
8:51 PM,39.0,24.1,55,30.28,10.0,NNE,4.6,-,N/A,,Overcast,20,2013-01-16 01:51:00
9:51 PM,37.9,24.1,57,30.26,10.0,NNE,6.9,-,N/A,,Overcast,30,2013-01-16 02:51:00
10:51 PM,37.0,26.1,65,30.25,10.0,NNE,8.1,-,0.00,Rain,Light Rain,30,2013-01-16 03:51:00
11:51 PM,36.0,28.9,76,30.23,8.0,NNE,8.1,-,0.02,Rain,Light Rain,20,2013-01-16 04:51:00